GFSMW_sfc_thetae_333.txt.gz
Theta_e
322 322 322 324 322 323 323 325 323 320 321 323 322 320 313 314 317 317 318 317 317 318 317 315 316 315 313 312 314 312 311 312 314 310 309 310 313 311 314 314 313 314 314
321 322 323 324 323 323 325 327 325 323 323 325 324 324 321 318 318 317 316 317 318 317 318 314 314 313 310 311 311 311 310 311 312 309 306 302 306 310 311 312 313 312 316
318 321 324 325 325 325 325 326 324 326 324 323 323 322 323 320 316 314 314 317 319 318 318 316 314 314 314 311 311 311 310 308 311 311 309 302 299 305 309 310 313 315 315
318 319 320 322 323 325 326 325 324 322 322 323 321 319 319 312 313 314 314 316 319 320 319 318 316 314 313 313 312 315 313 310 308 310 313 310 308 305 302 307 310 311 314
316 318 319 320 321 323 323 324 321 318 319 321 315 318 317 314 314 313 313 314 316 317 318 317 316 314 313 313 312 313 313 311 310 308 308 307 307 308 304 303 303 309 311
314 319 320 322 321 322 322 323 318 318 322 317 317 316 317 317 314 313 312 313 313 314 316 317 315 315 313 312 313 314 313 312 311 311 310 308 305 304 304 306 306 305 309
311 311 311 312 312 314 318 318 316 317 318 315 317 315 319 319 317 316 314 313 311 310 311 314 313 313 314 314 313 313 312 312 310 310 310 310 310 309 307 309 307 306 308
310 310 310 311 310 309 310 312 312 311 316 315 317 318 316 316 317 318 315 313 312 311 313 313 313 313 317 314 314 312 312 312 311 311 310 311 311 308 309 309 306 305 305
309 309 309 306 307 305 307 308 308 307 308 315 315 314 315 313 316 316 315 312 314 317 313 314 313 313 316 314 313 311 310 311 312 311 311 313 312 310 313 309 309 307 301
304 301 302 303 305 305 306 307 307 306 310 315 313 313 311 314 314 315 315 313 312 314 313 314 315 313 315 313 312 310 310 311 310 312 313 313 312 311 310 309 311 306 304
300 301 302 303 304 304 305 307 307 306 307 308 309 312 312 313 312 312 314 314 313 312 313 313 315 316 314 315 312 311 312 314 313 313 312 312 314 312 309 312 310 310 310
300 301 302 303 303 303 304 304 306 306 305 306 306 307 311 311 310 312 312 312 312 312 313 314 315 314 314 314 312 310 315 312 312 313 310 312 317 310 311 309 308 309 310
301 302 302 303 303 304 304 305 306 305 306 306 305 305 307 310 311 311 313 314 312 311 313 314 315 315 314 316 315 312 313 313 314 313 311 310 311 311 310 310 310 310 312
303 303 301 302 303 306 306 306 306 307 307 307 306 306 306 310 311 311 314 313 311 308 310 313 314 315 314 315 314 310 313 310 312 314 313 311 309 311 309 313 310 311 310
302 301 302 303 304 306 306 308 308 308 307 306 306 306 308 310 311 312 314 314 313 312 313 312 313 315 314 315 312 310 313 313 311 311 314 311 313 317 314 313 309 309 307
303 304 306 306 306 308 308 310 310 309 308 307 307 308 308 311 309 310 311 313 312 312 313 314 314 313 314 312 311 312 309 311 313 313 309 312 313 311 313 314 316 314 311
305 305 305 305 306 306 307 307 306 307 306 306 307 310 308 308 309 310 310 312 311 312 313 311 313 310 311 306 308 311 309 309 308 312 311 311 315 313 309 310 314 314 315
305 304 303 304 305 305 305 305 305 306 305 306 306 307 307 307 309 308 308 309 310 311 312 311 311 310 313 304 305 307 308 309 309 311 311 310 310 304 308 312 312 315 315
304 304 304 305 304 304 304 303 303 303 303 301 302 304 305 305 307 307 308 309 309 310 311 313 311 313 310 305 303 304 305 308 309 310 314 313 309 305 305 316 312 306 306
306 304 304 305 303 303 303 301 301 300 301 302 302 304 306 305 305 306 307 309 311 310 312 313 312 313 309 303 301 302 304 305 308 311 311 311 306 302 304 309 312 311 305
304 303 304 302 304 305 303 300 300 299 302 303 303 304 304 303 304 305 307 308 310 311 311 313 312 312 312 306 300 300 305 305 310 307 311 308 302 300 301 304 300 299 302
303 304 303 301 302 302 300 299 298 300 303 302 303 303 304 304 305 303 306 307 308 308 308 309 310 312 311 308 301 299 301 308 308 310 311 310 300 299 299 300 299 299 302
303 304 302 300 301 300 299 297 298 301 301 300 300 301 303 301 301 301 303 304 307 306 307 308 308 310 311 311 307 300 299 302 306 308 309 301 298 299 298 300 299 299 300
302 303 301 299 302 300 300 298 300 303 301 299 299 299 297 301 300 303 302 303 306 303 306 305 305 307 312 311 306 303 301 301 305 304 304 301 302 300 301 301 298 300 301
303 302 300 299 299 303 301 300 302 301 299 300 300 297 297 296 299 302 304 303 305 300 301 301 305 305 308 306 302 303 303 303 304 303 302 300 300 299 300 301 302 300 300
303 302 300 302 303 302 303 302 303 301 299 298 299 297 295 296 298 301 301 300 299 297 295 295 297 303 299 297 297 299 299 297 296 302 305 302 302 304 303 303 302 304 304

GFSMW_sfc_thetae_336.txt.gz
Theta_e
322 322 321 321 320 320 318 319 323 324 322 318 318 317 315 313 313 314 317 315 315 315 314 314 312 311 313 309 309 310 309 309 310 308 308 309 310 309 310 310 310 312 312
321 321 320 320 321 322 319 320 322 323 322 319 318 318 317 316 314 314 315 316 316 316 314 312 312 311 309 307 308 308 307 308 310 307 303 301 305 307 310 309 310 312 314
319 319 320 321 322 320 321 322 323 322 320 320 318 319 317 316 314 313 312 315 316 316 314 316 313 312 310 309 308 309 307 307 308 309 306 300 297 302 306 308 309 309 310
318 318 320 321 321 322 323 323 322 321 320 319 317 313 311 310 312 310 312 313 317 317 318 316 315 313 311 310 309 312 310 308 306 307 310 307 306 302 299 305 307 308 310
316 316 318 319 321 323 321 321 320 318 318 319 317 313 312 313 312 312 311 312 314 315 316 316 314 312 310 310 310 310 310 309 307 306 306 306 305 305 302 302 301 307 308
315 317 318 319 319 320 321 319 316 316 314 316 314 311 313 313 311 312 311 312 313 312 313 315 314 312 311 310 310 310 310 310 308 308 307 306 304 303 301 304 301 306 307
312 310 313 318 316 316 317 317 315 313 314 316 313 312 312 311 313 315 315 314 314 310 310 310 311 311 310 311 310 310 311 310 308 308 307 307 307 306 305 306 306 307 306
309 311 310 308 307 307 311 316 313 312 314 312 311 313 314 313 312 312 312 315 315 312 313 310 311 311 312 314 313 310 310 309 308 308 307 307 308 308 306 308 307 305 305
307 305 305 307 304 304 304 305 305 303 309 312 312 311 311 311 310 311 312 314 314 314 313 312 312 313 312 314 312 309 309 308 308 309 308 307 312 309 308 308 306 307 300
299 300 302 301 302 302 305 305 304 307 312 311 310 311 309 310 310 310 310 311 314 313 313 313 313 312 312 312 312 310 309 308 308 309 308 309 308 309 308 307 305 306 302
297 299 300 301 302 303 303 303 304 304 305 306 307 309 309 310 309 308 309 309 312 313 312 312 312 312 312 314 312 310 310 311 311 312 310 310 310 309 308 308 307 307 308
299 299 300 302 301 300 301 303 303 303 303 303 303 303 308 307 307 308 310 311 311 311 310 311 312 314 312 313 312 312 311 313 312 313 312 309 313 310 308 308 307 307 308
299 300 300 300 301 301 302 303 303 303 304 305 306 305 304 304 306 308 311 310 312 312 312 312 313 314 314 314 313 314 311 311 310 311 312 307 308 309 309 310 309 309 311
301 300 298 301 303 304 304 305 305 305 305 306 305 303 304 305 306 308 310 312 312 311 309 309 311 314 314 314 315 312 310 311 313 311 311 308 307 308 307 309 308 308 309
300 301 301 302 303 304 305 306 306 306 305 304 304 304 305 306 307 307 309 311 312 313 312 310 309 312 313 314 312 308 310 307 309 313 311 309 311 316 313 310 308 307 308
303 303 304 304 304 305 305 305 304 304 303 303 302 304 306 306 306 306 307 309 313 312 312 312 313 311 315 310 310 310 310 311 310 312 310 310 313 309 312 315 314 312 310
303 303 302 304 303 303 303 301 302 304 302 301 303 303 304 304 304 306 306 306 308 309 310 312 312 312 309 307 307 309 307 307 307 311 308 311 313 311 310 312 313 313 313
303 302 302 303 302 302 301 301 302 301 300 299 300 302 302 303 304 304 305 307 308 308 309 311 311 309 311 308 304 307 307 307 306 308 308 310 305 306 309 309 313 312 311
302 302 303 302 301 301 301 300 300 299 300 300 300 301 302 303 304 302 302 304 305 307 309 310 310 307 308 306 302 304 308 306 305 308 313 312 309 302 304 314 311 306 304
302 302 302 301 300 300 300 299 298 297 297 300 300 301 302 301 301 300 302 303 304 308 312 312 310 310 312 305 301 301 304 303 304 306 312 308 308 301 303 312 308 303 302
301 302 300 300 299 300 298 297 296 296 299 300 301 301 304 302 300 299 302 304 305 308 307 310 311 309 311 306 299 300 302 303 309 307 309 307 301 299 301 300 306 305 304
302 302 299 300 300 299 296 295 295 298 299 300 300 300 299 300 300 297 298 304 306 306 305 308 309 311 312 306 299 298 300 304 308 308 309 310 299 297 300 298 297 298 301
302 302 299 299 299 298 296 295 296 298 300 298 298 298 298 297 298 297 298 299 302 304 305 306 305 307 312 308 303 299 298 302 307 308 305 302 298 297 297 299 298 299 299
301 301 299 298 297 297 298 297 298 299 299 297 297 297 295 295 296 301 302 298 303 302 301 301 304 306 311 310 303 300 300 302 304 305 305 301 299 298 299 298 298 298 298
302 300 298 298 297 299 299 298 299 301 297 297 297 297 298 293 295 299 301 302 300 301 299 299 301 303 306 305 299 298 302 302 302 302 302 299 298 297 297 298 300 298 297
301 300 299 298 298 299 298 300 301 299 299 296 295 295 298 294 298 296 300 299 298 297 296 293 294 301 298 296 297 296 295 295 296 301 300 298 298 299 299 299 300 300 302

GFSMW_sfc_thetae_339.txt.gz
Theta_e
321 320 320 320 319 319 318 316 317 318 320 323 316 315 314 315 313 313 315 314 314 314 312 310 312 310 309 309 307 308 307 307 308 307 307 308 307 306 309 309 308 312 312
319 320 320 320 318 318 317 316 317 318 320 317 316 315 314 315 314 313 314 314 314 313 313 311 310 310 310 308 306 307 306 306 308 306 301 300 303 305 308 307 309 309 310
319 319 320 319 319 318 319 319 318 319 320 318 316 316 314 314 312 312 311 313 314 315 314 312 311 311 309 308 307 307 306 305 307 308 306 299 296 300 305 306 307 307 308
320 320 319 318 319 320 321 320 320 318 318 316 315 312 310 309 311 311 311 312 314 315 315 314 314 312 310 308 308 309 307 306 306 305 308 306 304 302 299 304 306 307 308
315 316 318 319 320 322 320 320 318 318 317 317 315 313 311 311 312 311 311 311 312 315 315 314 313 311 310 309 308 308 307 306 306 305 304 304 304 303 304 303 301 305 306
315 315 316 318 318 318 320 318 316 316 315 313 312 311 310 310 308 310 309 312 313 312 314 314 312 312 310 309 309 308 307 307 307 306 305 305 303 302 300 302 306 302 306
313 312 315 316 318 318 316 316 315 313 313 312 313 311 310 309 307 309 310 310 311 311 313 313 311 311 310 310 309 308 307 308 307 307 306 305 306 305 303 303 307 305 305
308 308 311 312 315 312 313 314 313 312 311 311 311 311 310 310 309 309 309 309 310 312 313 314 312 312 311 310 310 311 308 311 308 306 306 306 306 305 305 306 307 306 306
306 307 309 307 305 305 309 311 312 310 305 310 311 310 309 308 308 308 307 308 310 313 314 314 312 313 312 313 312 311 307 306 306 306 307 305 306 306 306 305 308 308 303
305 303 303 302 301 302 303 304 302 302 308 310 309 309 310 310 308 307 306 307 307 309 311 313 312 312 312 312 311 309 308 307 306 308 308 306 306 306 306 305 304 309 307
299 301 300 300 301 301 301 302 302 306 306 307 305 307 307 310 307 306 307 307 307 308 310 312 312 312 311 313 310 309 312 308 309 312 312 310 307 308 306 305 305 307 307
298 299 298 299 299 301 301 302 302 302 302 302 303 303 303 305 304 305 307 308 308 310 310 312 310 311 311 311 310 312 313 309 310 311 313 308 310 306 307 307 308 307 309
299 297 297 298 299 300 300 302 303 304 306 307 306 303 303 303 303 304 306 307 308 310 311 311 310 311 313 314 314 313 312 309 311 309 310 309 305 306 307 309 310 310 311
298 297 299 300 301 303 303 305 307 307 306 305 303 301 302 303 303 304 305 306 308 310 309 309 309 312 314 314 314 313 310 307 309 312 310 307 305 306 306 308 309 310 309
299 299 300 300 302 303 304 305 304 304 303 301 300 300 302 306 304 304 304 306 308 312 313 312 308 310 310 313 312 313 307 307 307 309 312 309 309 315 314 311 306 309 309
303 301 302 302 304 304 303 303 303 303 301 299 300 301 301 302 302 303 303 304 306 310 312 312 312 311 311 310 310 310 306 309 309 311 310 310 312 309 314 314 313 312 310
300 300 302 302 301 301 301 300 302 301 300 299 300 300 300 301 302 302 303 303 303 304 308 310 312 310 310 307 306 309 307 306 305 309 312 308 311 310 311 312 313 313 312
300 300 303 301 301 300 300 300 300 299 299 298 299 300 300 300 301 301 300 300 303 303 305 309 310 310 310 307 304 305 307 305 305 308 309 305 303 304 310 313 312 309 309
300 301 302 300 300 300 300 300 298 298 297 297 298 299 300 300 300 299 298 299 300 301 306 310 311 310 309 306 303 305 308 305 303 306 309 308 306 302 302 312 308 304 307
300 301 301 301 300 299 299 298 297 295 295 297 298 300 299 301 298 297 296 302 301 304 307 311 311 310 307 304 300 303 306 306 302 305 307 307 308 300 302 313 307 302 304
301 300 299 299 299 299 298 296 295 294 297 299 299 299 299 296 297 295 295 299 305 308 303 307 310 309 308 307 300 299 300 301 302 303 307 306 302 300 299 304 304 302 303
300 299 299 299 299 300 296 294 293 296 298 299 298 298 297 296 297 294 296 297 302 304 304 306 307 309 312 306 298 298 300 302 306 306 307 306 298 298 297 298 297 298 301
299 300 299 299 300 299 296 293 294 296 297 297 296 296 297 295 295 294 296 296 298 302 303 302 304 306 311 310 301 297 299 302 305 307 302 300 297 296 298 297 297 298 299
299 299 297 297 297 297 297 296 296 297 297 296 295 295 295 296 293 295 301 301 300 302 301 299 301 303 308 308 304 301 298 300 302 304 301 300 300 298 298 297 297 298 298
299 299 297 297 297 297 297 298 297 297 298 298 296 293 295 297 293 295 300 301 302 299 301 298 298 300 301 301 298 297 299 300 301 301 300 299 298 297 297 297 298 296 295
298 299 298 297 298 298 298 298 300 298 299 296 298 292 293 296 297 294 298 297 296 296 295 293 295 301 298 294 295 294 295 296 296 300 299 297 297 297 297 297 297 298 299

GFSMW_sfc_thetae_342.txt.gz
Theta_e
319 320 320 320 319 318 317 317 317 317 317 320 320 318 317 317 317 317 317 317 317 317 316 314 313 314 312 313 313 312 312 312 312 311 312 312 312 312 314 314 314 317 315
318 320 320 320 319 318 318 317 317 317 318 319 318 317 316 316 317 317 318 318 317 316 315 314 314 314 312 312 312 311 311 311 312 312 307 305 308 310 312 313 314 314 314
318 319 320 320 320 318 318 319 318 318 319 319 318 317 316 315 314 315 315 317 317 317 316 316 314 313 313 312 312 311 310 310 311 313 312 305 302 306 310 311 312 313 313
320 320 320 319 319 319 320 320 320 320 319 318 317 316 314 312 313 313 315 316 317 316 317 317 316 315 314 312 312 313 312 310 310 310 312 311 310 307 305 310 312 313 313
319 319 319 319 320 321 321 320 320 319 319 318 317 315 313 312 313 312 311 313 314 315 317 318 317 316 314 314 313 312 311 310 311 310 311 310 309 309 307 305 310 313 313
315 316 318 319 319 319 318 318 317 317 316 316 314 312 311 311 310 310 309 310 312 313 315 316 315 316 314 313 313 313 311 310 310 311 310 311 310 308 305 305 307 309 312
314 314 314 315 316 316 318 317 316 315 314 313 313 313 312 311 310 309 309 310 310 311 313 314 314 314 315 314 314 312 311 311 310 311 311 311 311 312 309 307 307 307 311
312 312 314 316 316 317 315 315 315 314 312 312 312 313 312 311 311 310 310 309 309 311 313 314 315 314 314 314 314 312 313 312 312 311 310 311 311 310 310 310 309 306 309
308 307 310 312 315 311 309 313 312 311 311 309 310 312 313 311 310 310 309 308 309 311 313 314 315 315 314 314 313 313 313 312 312 312 311 310 311 311 310 310 311 309 302
306 307 309 310 307 305 306 307 307 308 307 308 310 311 310 311 311 309 308 308 309 310 310 311 312 314 315 314 314 313 313 311 311 311 310 310 311 312 311 310 310 310 308
305 304 305 304 301 301 302 303 303 304 307 306 307 306 308 307 306 307 307 308 309 310 310 312 312 313 314 314 313 313 313 312 312 312 312 314 312 312 312 311 310 308 309
302 302 300 299 300 301 302 303 304 304 304 305 305 306 307 305 305 305 307 308 308 310 310 311 312 313 313 313 313 313 314 313 312 313 315 314 312 311 312 311 311 311 311
302 299 298 299 300 300 301 303 304 305 307 306 305 304 304 304 304 305 306 307 308 309 311 312 312 312 313 314 314 315 314 313 312 313 313 313 310 311 312 312 312 313 312
301 299 300 301 302 303 304 306 306 305 304 304 302 302 301 303 306 307 306 306 308 308 311 313 311 312 314 315 315 314 314 312 312 312 313 313 310 310 311 312 312 311 309
300 301 302 301 303 305 306 305 304 304 303 301 301 301 302 303 304 304 305 306 307 308 312 313 313 311 311 313 314 314 314 312 311 313 314 314 312 315 316 313 310 310 309
302 303 303 304 304 305 303 303 304 303 303 300 300 302 302 302 302 303 304 305 305 307 308 311 311 313 312 309 310 313 312 311 311 311 313 314 314 311 313 314 313 313 310
302 302 303 303 303 303 302 300 302 302 301 300 301 301 301 301 302 303 303 303 303 306 306 308 310 311 312 307 306 309 313 310 312 313 314 312 312 313 314 313 313 312 312
301 303 303 302 303 301 301 302 302 300 300 299 299 300 301 301 302 302 301 300 302 303 304 307 310 310 312 306 304 305 312 311 310 313 313 312 308 309 312 314 311 310 311
300 301 302 301 301 301 302 301 300 299 298 298 299 300 301 300 301 300 299 299 301 305 306 310 311 311 312 306 303 305 310 309 310 311 313 311 311 302 304 313 308 308 310
301 302 301 301 301 301 301 300 298 297 297 298 300 300 301 300 298 298 298 299 301 305 309 308 310 310 310 305 301 306 311 308 308 309 311 308 311 301 303 313 309 306 308
301 302 300 300 300 301 300 297 296 296 297 300 301 301 301 299 298 298 298 299 301 305 307 307 309 310 311 311 301 302 309 308 307 307 310 311 303 300 299 305 311 309 308
301 301 299 299 300 300 299 297 295 298 298 300 300 300 299 299 298 297 298 300 300 304 304 305 306 308 311 303 300 300 301 304 308 309 310 310 299 298 298 304 297 298 302
300 300 298 299 299 300 299 297 298 298 299 299 299 298 298 299 298 297 298 300 301 304 302 302 303 304 306 309 298 297 298 301 310 312 307 301 296 296 297 297 297 300 308
300 300 299 298 298 298 300 298 299 299 299 299 299 298 296 299 298 298 299 301 302 302 302 300 300 301 304 305 307 305 303 302 306 305 304 302 301 299 301 302 303 306 306
299 299 298 298 299 299 299 300 300 300 300 300 299 298 296 297 297 298 300 302 304 301 301 302 300 300 300 301 295 300 306 305 304 305 305 305 303 302 303 304 304 304 304
299 298 299 299 300 300 299 301 302 302 299 299 299 297 296 296 297 297 298 298 295 295 295 293 295 301 298 295 294 294 293 296 296 306 304 303 304 303 303 304 304 305 303

GFSMW_sfc_thetae_345.txt.gz
Theta_e
325 326 327 328 328 329 329 330 329 329 327 327 327 327 328 330 330 331 330 329 329 329 328 326 326 326 324 324 324 322 321 320 321 318 316 317 321 321 321 322 322 323 323
326 326 328 329 329 330 330 330 330 331 331 329 330 330 330 330 330 330 331 330 328 327 326 325 322 325 323 325 324 323 320 319 321 315 315 310 314 321 320 320 322 322 323
326 327 329 330 331 330 331 331 332 333 332 332 332 331 330 328 326 326 325 327 327 326 326 325 321 324 323 320 325 324 322 317 320 321 315 309 308 312 319 319 319 321 320
328 329 330 331 332 332 332 332 332 334 334 334 331 330 326 320 323 324 325 325 325 324 324 324 324 324 323 322 321 322 323 321 317 318 319 320 317 310 309 318 319 321 320
329 330 330 331 331 331 331 332 333 334 334 333 331 329 327 325 324 324 324 323 323 324 322 322 324 325 324 323 321 323 324 320 319 317 317 318 317 318 313 309 312 317 320
325 328 328 328 329 330 330 330 329 331 331 331 330 328 326 324 322 323 322 319 319 320 321 322 322 324 324 321 321 319 321 322 320 320 319 316 315 315 311 309 312 313 317
324 321 324 325 326 326 326 326 326 327 329 328 326 326 326 326 324 323 320 319 317 316 319 322 322 321 323 322 322 318 317 319 317 318 319 321 319 322 317 315 312 312 315
321 322 323 324 323 321 325 325 324 325 327 325 324 325 325 323 322 322 319 318 318 317 320 321 322 322 322 322 322 318 316 317 316 319 321 316 321 320 320 313 314 310 312
320 320 322 323 323 323 325 323 322 323 323 322 322 322 324 322 321 321 320 317 320 318 318 320 320 321 321 322 322 317 316 319 318 320 322 321 317 319 314 318 317 312 306
318 317 319 320 323 324 322 317 318 319 318 317 320 320 318 319 318 315 315 318 319 318 317 318 319 320 320 321 321 319 318 318 319 318 321 321 318 315 318 319 316 314 312
317 318 317 316 312 314 313 313 314 314 315 315 315 316 316 316 316 315 316 317 317 317 317 317 318 319 317 318 318 320 320 319 317 319 319 320 319 320 318 319 318 313 313
316 314 309 309 309 310 312 313 314 313 313 315 316 314 313 313 313 313 316 316 315 316 317 318 317 314 313 318 318 319 318 319 318 318 319 319 319 319 319 321 319 318 316
308 308 309 308 308 309 311 312 313 314 313 313 311 311 311 310 310 311 313 313 315 315 316 317 316 315 316 317 319 320 319 319 318 317 318 318 319 319 317 320 319 318 317
307 307 307 308 310 312 313 313 313 312 312 310 309 309 309 309 310 311 312 313 313 314 314 315 317 315 313 316 319 320 319 319 316 318 319 319 319 318 318 318 318 316 313
306 309 309 310 312 313 313 311 311 311 310 309 307 307 308 309 309 310 311 313 313 313 313 314 316 314 313 312 318 319 316 318 316 319 320 320 319 314 317 315 314 315 311
308 309 310 311 310 311 309 309 309 309 309 307 305 306 307 308 308 310 310 311 311 310 312 315 315 312 314 310 309 314 318 317 317 318 319 319 316 315 315 314 315 311 311
308 308 309 310 311 310 309 308 308 308 307 305 305 306 307 307 307 308 308 308 308 309 311 314 316 316 313 308 306 308 318 319 319 320 319 317 316 316 316 314 313 312 313
307 308 311 311 311 309 309 309 308 307 306 305 305 306 306 306 307 307 306 306 307 309 311 312 315 315 312 307 304 306 315 320 320 319 318 318 315 316 316 314 312 313 319
309 310 312 311 310 309 309 308 307 306 305 304 305 306 306 306 306 305 305 306 307 309 310 311 314 311 312 307 303 306 316 318 319 318 316 316 314 304 308 314 311 316 315
310 310 310 309 309 309 309 308 307 306 305 305 305 305 305 305 305 305 305 307 307 309 310 310 314 310 311 307 303 305 313 317 317 318 319 308 313 300 303 316 311 312 316
308 310 310 309 310 310 309 307 307 306 307 305 303 304 304 305 306 303 305 306 307 310 311 308 311 309 309 311 301 300 319 319 316 314 316 316 303 301 301 306 313 311 316
308 309 309 309 311 310 308 307 307 309 308 303 303 306 304 304 305 303 305 306 305 308 309 309 309 308 308 305 301 299 303 308 314 313 316 316 299 299 300 307 299 299 308
309 310 308 309 310 311 309 307 309 310 308 302 304 306 306 304 305 301 303 305 307 308 305 304 305 304 305 310 299 298 298 302 314 315 307 299 296 296 300 298 298 301 315
308 310 309 308 309 311 311 309 309 309 308 304 306 306 303 302 303 301 303 306 306 305 305 302 302 302 304 303 307 310 306 303 312 307 311 307 304 301 306 306 308 314 316
309 309 309 309 309 311 311 311 311 310 308 307 306 305 302 303 303 303 303 303 306 302 302 304 304 302 301 302 296 302 308 312 310 311 312 312 314 312 312 313 313 314 314
310 309 309 310 310 310 310 312 312 310 308 307 306 304 303 302 303 303 302 298 296 295 293 292 297 302 297 294 293 295 293 295 297 308 312 313 314 313 312 312 311 313 309

GFSMW_sfc_thetae_348.txt.gz
Theta_e
331 333 334 336 335 335 335 336 336 338 336 332 331 333 334 332 332 333 335 334 333 333 334 331 330 331 330 329 328 327 326 324 325 320 320 320 322 323 323 325 324 325 326
329 330 332 334 335 335 336 338 338 339 337 335 336 335 334 329 329 328 331 331 330 330 330 331 327 329 327 328 329 329 325 322 324 319 318 312 316 319 323 323 323 324 325
330 331 332 334 335 336 337 338 339 339 339 340 337 336 333 331 324 324 323 325 327 326 326 326 326 327 328 324 329 325 326 322 323 325 318 311 309 314 319 322 322 324 324
332 332 332 332 336 336 338 339 339 340 340 341 335 334 321 318 319 322 323 325 327 326 325 325 325 326 324 324 325 329 327 327 321 324 321 322 319 312 310 320 321 323 323
333 332 331 333 336 337 339 339 340 340 339 338 335 326 326 321 322 322 325 327 327 325 324 325 325 324 322 324 326 327 327 325 325 323 321 320 318 319 315 310 313 320 321
333 334 335 332 336 337 336 336 337 337 335 333 332 333 331 328 323 322 322 321 321 321 324 323 323 324 324 323 324 326 327 326 326 323 322 319 316 315 317 313 314 316 318
331 330 330 331 333 333 331 332 331 327 329 329 329 329 331 330 328 325 321 322 319 319 324 324 323 322 323 323 324 324 326 324 323 323 320 321 319 323 321 318 315 314 317
328 329 329 329 330 328 325 327 327 323 323 325 328 328 330 325 323 324 323 321 319 320 324 322 322 322 323 323 324 323 326 322 321 321 322 320 321 323 321 319 317 313 314
325 326 327 327 325 325 325 322 322 323 325 326 327 327 327 326 324 324 323 319 322 319 320 321 320 321 322 322 324 323 322 323 323 318 322 325 322 322 322 322 320 315 310
325 324 326 325 327 327 324 324 324 323 324 324 324 323 324 323 322 322 320 320 320 320 320 319 319 320 321 321 323 323 323 323 320 323 322 323 321 321 322 318 321 320 314
322 323 323 322 321 320 318 321 320 318 320 320 321 321 321 320 319 317 317 317 318 319 318 318 318 318 319 321 319 320 320 321 321 322 321 322 323 321 321 325 322 319 316
321 320 317 315 313 313 316 317 319 318 319 319 319 318 317 317 316 315 315 315 315 317 317 317 317 317 318 319 318 318 321 320 321 321 321 320 320 322 325 321 321 319 324
315 315 314 312 313 316 317 317 318 318 317 317 315 315 315 315 313 313 313 314 314 315 315 314 315 316 318 320 318 319 321 321 322 322 320 319 321 322 319 321 320 325 323
313 312 310 315 316 317 317 317 316 315 315 314 313 312 312 312 312 313 313 313 314 313 312 314 314 316 319 319 315 318 322 322 321 321 321 320 320 321 321 321 321 319 319
311 314 314 316 315 316 315 314 314 314 313 311 310 310 311 312 312 312 312 313 313 311 312 312 313 316 319 315 316 319 320 321 321 320 320 321 320 317 318 321 320 319 317
311 313 313 313 314 314 313 312 312 311 311 310 309 310 310 310 310 310 309 311 311 311 311 312 313 316 319 310 310 314 318 320 320 319 320 321 317 317 314 314 314 313 312
311 311 312 313 313 312 312 311 310 311 310 309 309 309 308 307 309 309 309 309 310 311 312 312 314 316 316 308 306 309 319 321 320 321 321 321 319 318 318 314 313 314 314
310 312 313 313 313 312 311 311 311 310 309 309 309 308 307 307 308 308 307 309 310 310 311 313 315 315 316 307 305 306 320 322 322 321 321 321 319 318 317 314 315 317 320
313 313 313 312 312 312 311 311 310 310 309 309 308 308 309 308 306 306 306 308 309 309 311 313 312 314 315 305 304 308 319 320 321 320 320 317 319 306 307 313 313 317 320
314 313 312 312 312 312 312 311 311 310 309 308 309 309 310 308 306 308 307 308 309 309 311 314 314 309 310 304 303 307 319 320 319 322 322 308 316 304 306 313 313 317 321
312 312 312 312 313 313 313 311 311 310 311 311 311 309 310 309 306 308 307 307 309 311 313 313 314 312 308 307 303 301 321 316 315 315 318 316 302 300 301 302 314 317 322
311 311 311 312 313 313 313 312 312 313 313 312 312 311 309 307 305 306 307 310 311 311 311 310 309 310 308 304 304 299 303 311 317 315 318 315 300 299 300 306 300 302 311
311 311 311 312 313 314 313 312 313 314 313 312 312 310 309 307 307 306 306 306 309 309 307 306 305 308 306 307 301 299 299 302 315 317 304 298 297 298 302 299 299 298 316
311 311 311 311 311 313 314 314 315 315 313 312 312 310 309 305 307 306 306 305 305 305 303 306 306 307 305 305 309 312 311 305 313 308 312 309 305 301 310 308 308 315 319
313 312 311 311 312 313 313 315 315 315 312 312 312 310 308 307 307 307 307 306 307 302 305 305 303 302 303 303 298 298 310 313 311 315 316 316 315 314 314 314 314 314 315
314 313 313 313 312 312 312 313 315 314 312 312 309 308 307 307 306 306 307 298 298 296 294 293 296 301 297 294 293 297 295 295 297 313 312 313 314 312 313 313 313 314 311